Hourly Data Report for November 11, 2020

OTTAWA INTL A
ONTARIO
Current Station Operator: NAVCAN

45°19'00.000" N
75°40'00.000" W
114.90 m
6106001
71628
YOW

Download Data

Hourly Data (November 2020)
Hourly Data Report for November 11, 2020
TIME Temp Definition
°C
Dew Point Definition
°C
Rel Hum Definition
%
Wind Dir Definition
10's deg

Wind Spd Definition
km/h
Visibility Definition
km
Stn Press Definition
kPa
Hmdx Definition


Wind Chill Definition


Weather Definition


00:00 17.4 11.8 70 20 12 24.1 99.72     LegendNANA
01:00 17.2 12.1 72 20 12 24.1 99.68     Mostly Cloudy
02:00 17.0 12.5 75 20 13 24.1 99.65     LegendNANA
03:00 17.1 12.9 76 19 19 24.1 99.57     LegendNANA
04:00 17.1 12.9 76 18 22 24.1 99.53     Mostly Cloudy
05:00 16.9 12.9 77 19 17 24.1 99.55     LegendNANA
06:00 16.6 13.5 82 19 16 24.1 99.48     LegendNANA
07:00 16.8 13.9 83 19 22 24.1 99.48     Rain
08:00 15.9 14.8 93 19 20 24.1 99.45     Rain
09:00 16.2 15.2 93 20 20 24.1 99.46     LegendNANA
10:00 16.3 15.4 94 19 25 16.1 99.40     Rain
11:00 17.1 15.6 91 20 32 16.1 99.36     Rain
12:00 17.9 15.7 87 21 27 16.1 99.30     Rain
13:00 18.1 15.4 84 21 23 24.1 99.29     Mostly Cloudy
14:00 18.9 14.9 77 21 30 24.1 99.26     LegendNANA
15:00 19.0 14.5 75 21 24 24.1 99.26     LegendNANA
16:00 17.6 13.4 76 21 17 24.1 99.28     Mainly Clear
17:00 16.3 12.4 78 22 18 24.1 99.36     LegendNANA
18:00 14.8 2.5 43 29 23 24.1 99.53     LegendNANA
19:00 11.9 2.0 51 29 31 24.1 99.65     Mostly Cloudy
20:00 9.1 2.3 62 30 31 24.1 99.82     LegendNANA
21:00 7.4 1.1 64 29 19 24.1 99.94     LegendNANA
22:00 6.5 0.5 66 28 17 24.1 100.02     Mostly Cloudy
23:00 4.4 0.4 75 28 17 24.1 100.05     LegendNANA

Notes on Data Quality.

Legend

  • E = Estimated
  • M = Missing
  • NA = Not Available*
  • [empty] = Indicates an unobserved value
Date modified: